Location: Possagno
(45.8500°N, 11.8667°E)
Time: 18:58:34
(UTC+00:00)

NOSS 2-1 (C) - Pass Details

Date: 07 June 2020
Orbit: 448 x 1755 km, 63.3° (Epoch: 29 June)

Event Time Altitude Azimuth Distance (km) Brightness Sun altitude
Exits shadow 01:12:31 38° 215° (SW) 695 3.3 -16.1°
Maximum altitude 01:13:41 86° 130° (SE) 458 2.8 -16.0°
Drops below altitude 10° 01:17:15 10° 39° (NE) 1,667 7.1 -15.7°
Sets 01:19:31 0° 39° (NE) 2,647 8.6 -15.5°
